TimeEDT,TemperatureF,Dew PointF,Humidity,Sea Level PressureIn,VisibilityMPH,Wind Direction,Wind SpeedMPH,Gust SpeedMPH,PrecipitationIn,Events,Conditions,WindDirDegrees,DateUTC
12:51 AM,68.0,59.0,73,29.87,10.0,Calm,Calm,-,N/A,,Mostly Cloudy,0,2013-07-21 04:51:00
1:51 AM,69.1,59.0,70,29.87,10.0,Calm,Calm,-,N/A,,Mostly Cloudy,0,2013-07-21 05:51:00
2:51 AM,68.0,57.9,70,29.88,10.0,Calm,Calm,-,N/A,,Mostly Cloudy,0,2013-07-21 06:51:00
3:51 AM,64.9,57.9,78,29.89,10.0,Calm,Calm,-,N/A,,Mostly Cloudy,0,2013-07-21 07:51:00
4:51 AM,64.0,59.0,84,29.89,10.0,Calm,Calm,-,N/A,,Mostly Cloudy,0,2013-07-21 08:51:00
5:51 AM,63.0,59.0,87,29.91,10.0,Calm,Calm,-,N/A,,Mostly Cloudy,0,2013-07-21 09:51:00
6:51 AM,66.0,61.0,84,29.93,10.0,Calm,Calm,-,N/A,,Mostly Cloudy,0,2013-07-21 10:51:00
7:51 AM,70.0,61.0,73,29.95,10.0,Calm,Calm,-,N/A,,Mostly Cloudy,0,2013-07-21 11:51:00
8:51 AM,73.0,63.0,71,29.96,10.0,NNW,4.6,-,N/A,,Mostly Cloudy,340,2013-07-21 12:51:00
9:51 AM,73.0,62.1,68,29.96,10.0,NNW,4.6,-,N/A,,Mostly Cloudy,330,2013-07-21 13:51:00
10:51 AM,73.9,64.0,71,29.97,10.0,North,6.9,-,N/A,,Mostly Cloudy,350,2013-07-21 14:51:00
11:51 AM,75.9,64.0,67,29.97,10.0,Calm,Calm,-,N/A,,Mostly Cloudy,0,2013-07-21 15:51:00
12:51 PM,78.1,63.0,60,29.97,10.0,Calm,Calm,-,N/A,,Scattered Clouds,0,2013-07-21 16:51:00
1:51 PM,80.1,63.0,56,29.96,10.0,Calm,Calm,-,N/A,,Scattered Clouds,0,2013-07-21 17:51:00
2:51 PM,82.9,64.0,53,29.95,10.0,Calm,Calm,-,N/A,,Mostly Cloudy,0,2013-07-21 18:51:00
3:51 PM,82.0,59.0,45,29.94,10.0,WNW,8.1,-,N/A,,Mostly Cloudy,300,2013-07-21 19:51:00
4:51 PM,82.9,59.0,44,29.93,10.0,North,6.9,-,N/A,,Mostly Cloudy,360,2013-07-21 20:51:00
5:51 PM,82.0,59.0,45,29.93,10.0,NW,8.1,-,N/A,,Mostly Cloudy,320,2013-07-21 21:51:00
6:51 PM,81.0,60.1,49,29.93,10.0,NW,5.8,-,N/A,,Mostly Cloudy,320,2013-07-21 22:51:00
7:51 PM,78.1,59.0,52,29.94,10.0,WNW,5.8,-,N/A,,Mostly Cloudy,300,2013-07-21 23:51:00
8:51 PM,75.0,61.0,62,29.96,10.0,WNW,3.5,-,N/A,,Mostly Cloudy,300,2013-07-22 00:51:00
9:51 PM,75.9,60.1,58,29.98,10.0,Calm,Calm,-,N/A,,Mostly Cloudy,0,2013-07-22 01:51:00
10:51 PM,73.9,61.0,64,29.98,10.0,North,4.6,-,N/A,,Mostly Cloudy,10,2013-07-22 02:51:00
11:51 PM,72.0,61.0,68,29.99,10.0,North,5.8,-,N/A,,Mostly Cloudy,360,2013-07-22 03:51:00